TimeEST,TemperatureF,Dew PointF,Humidity,Sea Level PressureIn,VisibilityMPH,Wind Direction,Wind SpeedMPH,Gust SpeedMPH,PrecipitationIn,Events,Conditions,WindDirDegrees,DateUTC
12:56 AM,41.0,30.0,65,30.06,10.0,West,4.6,-,N/A,,Clear,260,2013-02-04 05:56:00
1:56 AM,41.0,28.9,62,30.06,10.0,Calm,Calm,-,N/A,,Clear,0,2013-02-04 06:56:00
2:56 AM,36.0,28.0,73,30.07,10.0,WSW,5.8,-,N/A,,Clear,250,2013-02-04 07:56:00
3:56 AM,36.0,28.0,73,30.06,10.0,NNW,4.6,-,N/A,,Clear,330,2013-02-04 08:56:00
5:56 AM,34.0,28.0,79,30.09,10.0,Calm,Calm,-,N/A,,Partly Cloudy,0,2013-02-04 10:56:00
6:56 AM,30.9,27.0,85,30.11,10.0,Calm,Calm,-,N/A,,Scattered Clouds,0,2013-02-04 11:56:00
7:56 AM,37.0,30.0,76,30.14,10.0,Calm,Calm,-,N/A,,Scattered Clouds,0,2013-02-04 12:56:00
8:56 AM,43.0,30.9,62,30.16,10.0,ENE,4.6,-,N/A,,Mostly Cloudy,60,2013-02-04 13:56:00
9:56 AM,48.9,28.0,44,30.16,10.0,ENE,6.9,-,N/A,,Mostly Cloudy,70,2013-02-04 14:56:00
10:56 AM,52.0,25.0,35,30.15,10.0,ESE,6.9,-,N/A,,Mostly Cloudy,120,2013-02-04 15:56:00
11:56 AM,52.0,24.1,34,30.14,10.0,SE,5.8,-,N/A,,Overcast,130,2013-02-04 16:56:00
12:56 PM,53.1,25.0,34,30.11,10.0,East,4.6,-,N/A,,Overcast,80,2013-02-04 17:56:00
1:56 PM,55.0,26.1,33,30.09,10.0,Calm,Calm,-,N/A,,Overcast,0,2013-02-04 18:56:00
2:56 PM,55.9,26.1,32,30.08,10.0,SE,4.6,-,N/A,,Mostly Cloudy,130,2013-02-04 19:56:00
3:56 PM,55.0,25.0,31,30.09,10.0,SSE,3.5,-,N/A,,Mostly Cloudy,160,2013-02-04 20:56:00
4:56 PM,53.1,30.9,43,30.09,10.0,SSE,6.9,-,N/A,,Overcast,150,2013-02-04 21:56:00
5:56 PM,51.1,35.1,54,30.08,10.0,SSE,6.9,-,N/A,,Overcast,150,2013-02-04 22:56:00
6:56 PM,48.9,37.0,64,30.08,10.0,South,6.9,-,N/A,,Overcast,190,2013-02-04 23:56:00
7:56 PM,46.0,37.0,71,30.10,10.0,SSW,5.8,-,N/A,,Mostly Cloudy,200,2013-02-05 00:56:00
8:56 PM,46.9,37.0,68,30.10,10.0,SSW,3.5,-,N/A,,Mostly Cloudy,200,2013-02-05 01:56:00
9:56 PM,45.0,37.9,76,30.09,10.0,Calm,Calm,-,N/A,,Mostly Cloudy,0,2013-02-05 02:56:00
10:56 PM,42.1,37.0,82,30.10,10.0,Calm,Calm,-,N/A,,Mostly Cloudy,0,2013-02-05 03:56:00
11:56 PM,43.0,37.9,82,30.09,10.0,South,3.5,-,N/A,,Mostly Cloudy,190,2013-02-05 04:56:00